Tracking 20370 objects as of 20-Feb-2020
HD Live streaming from Space Station
objects crossing your sky now
Track the group of recently launched Starlink satellites

COSMOS 1995

Track COSMOS 1995 now!
10-day predictions
COSMOS 1995 is classified as:


NORAD ID: 19786
Int'l Code: 1989-009B
Perigee: 1,419.1 km
Apogee: 1,423.3 km
Inclination: 82.6 °
Period: 114.1 minutes
Semi major axis: 7792 km
RCS: 1.2185 m2 (large)
Launch date: February 10, 1989
Source: Commonwealth of Independent States (former USSR) (CIS)
Launch site: PLESETSK MISSILE AND SPACE COMPLEX (PKMTR)
aabbcc
Your satellite tracking list
Your tracking list is empty




NASA's NSSDC Master Catalog

Two Line Element Set (TLE):
1 19786U 89009B   20050.50685400 +.00000041 +00000-0 +17297-3 0  9996
2 19786 082.6205 053.3877 0002703 330.8976 142.3383 12.62153358428966
Source of the keplerian elements: AFSPC